Time,TemperatureF,DewpointF,PressureIn,WindDirection,WindDirectionDegrees,WindSpeedMPH,WindSpeedGustMPH,Humidity,HourlyPrecipIn,Conditions,Clouds,dailyrainin,SolarRadiationWatts/m^2,SoftwareType,DateUTC
2013-01-28 00:02:00,12.0,8.0,-100.00,SW,235,4.0,7.0,84,0.00,,,0.01,0.000000,,2013-01-28 07:02:00,
2013-01-28 00:32:00,12.0,8.0,-100.00,SW,221,4.0,6.0,84,0.00,,,0.01,0.000000,,2013-01-28 07:32:00,
2013-01-28 00:42:00,12.0,8.0,-100.00,SW,221,4.0,6.0,84,0.00,,,0.01,0.000000,,2013-01-28 07:42:00,
2013-01-28 00:52:00,12.0,8.0,-100.00,SW,221,4.0,6.0,84,0.00,,,0.01,0.000000,,2013-01-28 07:52:00,
2013-01-28 01:01:00,12.0,8.0,-100.00,SW,221,4.0,6.0,84,0.00,,,0.01,0.000000,,2013-01-28 08:01:00,
2013-01-28 01:32:00,11.0,7.0,-100.00,SW,227,4.0,5.0,83,0.00,,,-99.99,0.000000,,2013-01-28 08:32:00,
2013-01-28 01:42:00,11.0,7.0,-100.00,SW,227,4.0,5.0,83,0.00,,,-99.99,0.000000,,2013-01-28 08:42:00,
2013-01-28 01:52:00,11.0,7.0,-100.00,SW,227,4.0,5.0,83,0.00,,,-99.99,0.000000,,2013-01-28 08:52:00,
2013-01-28 02:01:00,11.0,7.0,-100.00,SW,227,4.0,5.0,83,0.00,,,-99.99,0.000000,,2013-01-28 09:01:00,
2013-01-28 02:32:00,12.0,8.0,-100.00,SW,225,3.0,6.0,84,0.00,,,-99.99,0.000000,,2013-01-28 09:32:00,
2013-01-28 02:42:00,12.0,8.0,-100.00,SW,225,3.0,6.0,84,0.00,,,-99.99,0.000000,,2013-01-28 09:42:00,
2013-01-28 02:52:00,12.0,8.0,-100.00,SW,225,3.0,6.0,84,0.00,,,-99.99,0.000000,,2013-01-28 09:52:00,
2013-01-28 03:01:00,12.0,8.0,-100.00,SW,225,3.0,6.0,84,0.00,,,-99.99,0.000000,,2013-01-28 10:01:00,
2013-01-28 03:32:00,12.0,8.0,-100.00,SSW,192,3.0,4.0,84,0.00,,,-99.99,0.000000,,2013-01-28 10:32:00,
2013-01-28 03:42:00,12.0,8.0,-100.00,SSW,192,3.0,4.0,84,0.00,,,-99.99,0.000000,,2013-01-28 10:42:00,
2013-01-28 03:52:00,12.0,8.0,-100.00,SSW,192,3.0,4.0,84,0.00,,,-99.99,0.000000,,2013-01-28 10:52:00,
2013-01-28 04:01:00,12.0,8.0,-100.00,SSW,192,3.0,4.0,84,0.00,,,-99.99,0.000000,,2013-01-28 11:01:00,
2013-01-28 04:32:00,12.0,8.0,-100.00,SSW,201,3.0,7.0,85,0.00,,,-99.99,0.000000,,2013-01-28 11:32:00,
2013-01-28 04:42:00,12.0,8.0,-100.00,SSW,201,3.0,7.0,85,0.00,,,-99.99,0.000000,,2013-01-28 11:42:00,
2013-01-28 04:52:00,12.0,8.0,-100.00,SSW,201,3.0,7.0,85,0.00,,,-99.99,0.000000,,2013-01-28 11:52:00,
2013-01-28 05:03:00,12.0,8.0,-100.00,SSW,201,3.0,7.0,85,0.00,,,-99.99,0.000000,,2013-01-28 12:03:00,
2013-01-28 05:33:00,12.0,8.0,-100.00,SSW,206,4.0,7.0,83,0.00,,,-99.99,0.000000,,2013-01-28 12:33:00,
2013-01-28 05:42:00,12.0,8.0,-100.00,SSW,206,4.0,7.0,83,0.00,,,-99.99,0.000000,,2013-01-28 12:42:00,
2013-01-28 05:52:00,12.0,8.0,-100.00,SSW,206,4.0,7.0,83,0.00,,,-99.99,0.000000,,2013-01-28 12:52:00,
2013-01-28 06:02:00,12.0,8.0,-100.00,SSW,206,4.0,7.0,83,0.00,,,-99.99,0.000000,,2013-01-28 13:02:00,
2013-01-28 06:33:00,11.0,7.0,-100.00,SW,215,6.0,7.0,83,0.00,,,-99.99,0.000000,,2013-01-28 13:33:00,
2013-01-28 06:42:00,11.0,7.0,-100.00,SW,215,6.0,7.0,83,0.00,,,-99.99,0.000000,,2013-01-28 13:42:00,
2013-01-28 06:52:00,11.0,7.0,-100.00,SW,215,6.0,7.0,83,0.00,,,-99.99,0.000000,,2013-01-28 13:52:00,
2013-01-28 07:02:00,11.0,7.0,-100.00,SW,215,6.0,7.0,83,0.00,,,-99.99,0.000000,,2013-01-28 14:02:00,
2013-01-28 10:33:00,12.0,8.0,-100.00,South,190,6.0,8.0,82,-99.99,,,0.01,177.000000,,2013-01-28 17:33:00,
2013-01-28 10:42:00,12.0,8.0,-100.00,South,190,6.0,8.0,82,-99.99,,,0.01,177.000000,,2013-01-28 17:42:00,
2013-01-28 10:52:00,12.0,8.0,-100.00,South,190,6.0,8.0,82,-99.99,,,0.01,177.000000,,2013-01-28 17:52:00,
2013-01-28 11:02:00,12.0,8.0,-100.00,South,190,6.0,8.0,82,-99.99,,,0.01,177.000000,,2013-01-28 18:02:00,
2013-01-28 11:33:00,13.0,9.0,-100.00,South,172,6.0,9.0,82,0.00,,,0.01,266.000000,,2013-01-28 18:33:00,
2013-01-28 11:42:00,13.0,9.0,-100.00,South,172,6.0,9.0,82,0.00,,,0.01,266.000000,,2013-01-28 18:42:00,
2013-01-28 11:52:00,13.0,9.0,-100.00,South,172,6.0,9.0,82,0.00,,,0.01,266.000000,,2013-01-28 18:52:00,
2013-01-28 12:01:00,13.0,9.0,-100.00,South,172,6.0,9.0,82,0.00,,,0.01,266.000000,,2013-01-28 19:01:00,
2013-01-28 12:33:00,15.0,10.0,-100.00,South,178,6.0,9.0,79,0.00,,,0.01,452.000000,,2013-01-28 19:33:00,
2013-01-28 12:42:00,15.0,10.0,-100.00,South,178,6.0,9.0,79,0.00,,,0.01,452.000000,,2013-01-28 19:42:00,
2013-01-28 12:52:00,15.0,10.0,-100.00,South,178,6.0,9.0,79,0.00,,,0.01,452.000000,,2013-01-28 19:52:00,
2013-01-28 13:02:00,15.0,10.0,-100.00,South,178,6.0,9.0,79,0.00,,,0.01,452.000000,,2013-01-28 20:02:00,
2013-01-28 13:33:00,16.0,11.0,-100.00,South,176,5.0,8.0,79,0.00,,,0.01,412.000000,,2013-01-28 20:33:00,
2013-01-28 13:43:00,16.0,11.0,-100.00,South,176,5.0,8.0,79,0.00,,,0.01,412.000000,,2013-01-28 20:43:00,
2013-01-28 13:52:00,16.0,11.0,-100.00,South,176,5.0,8.0,79,0.00,,,0.01,412.000000,,2013-01-28 20:52:00,
2013-01-28 14:02:00,16.0,11.0,-100.00,South,176,5.0,8.0,79,0.00,,,0.01,412.000000,,2013-01-28 21:02:00,
2013-01-28 14:33:00,16.0,11.0,-100.00,South,189,5.0,9.0,81,0.00,,,0.01,368.000000,,2013-01-28 21:33:00,
2013-01-28 14:43:00,16.0,11.0,-100.00,South,189,5.0,9.0,81,0.00,,,0.01,368.000000,,2013-01-28 21:43:00,
2013-01-28 14:53:00,16.0,11.0,-100.00,South,189,5.0,9.0,81,0.00,,,0.01,368.000000,,2013-01-28 21:53:00,
2013-01-28 15:01:00,16.0,11.0,-100.00,South,189,5.0,9.0,81,0.00,,,0.01,368.000000,,2013-01-28 22:01:00,
2013-01-28 15:33:00,17.0,12.0,-100.00,South,189,4.0,7.0,81,0.00,,,-99.99,372.000000,,2013-01-28 22:33:00,
2013-01-28 15:42:00,17.0,12.0,-100.00,South,189,4.0,7.0,81,0.00,,,-99.99,372.000000,,2013-01-28 22:42:00,
2013-01-28 15:52:00,17.0,12.0,-100.00,South,189,4.0,7.0,81,0.00,,,-99.99,372.000000,,2013-01-28 22:52:00,
2013-01-28 16:01:00,17.0,12.0,-100.00,South,189,4.0,7.0,81,0.00,,,-99.99,372.000000,,2013-01-28 23:01:00,
2013-01-28 16:32:00,15.0,11.0,-100.00,SSW,192,5.0,6.0,83,0.00,,,0.00,190.000000,,2013-01-28 23:32:00,
2013-01-28 16:42:00,15.0,11.0,-100.00,SSW,192,5.0,6.0,83,0.00,,,0.00,190.000000,,2013-01-28 23:42:00,
2013-01-28 16:53:00,15.0,11.0,-100.00,SSW,192,5.0,6.0,83,0.00,,,0.00,190.000000,,2013-01-28 23:53:00,
2013-01-28 17:02:00,15.0,11.0,-100.00,SSW,192,5.0,6.0,83,0.00,,,0.00,190.000000,,2013-01-29 00:02:00,
2013-01-28 17:33:00,15.0,12.0,-100.00,SSW,200,6.0,9.0,86,0.00,,,0.00,48.000000,,2013-01-29 00:33:00,
2013-01-28 17:42:00,15.0,12.0,-100.00,SSW,200,6.0,9.0,86,0.00,,,0.00,48.000000,,2013-01-29 00:42:00,
2013-01-28 17:52:00,15.0,12.0,-100.00,SSW,200,6.0,9.0,86,0.00,,,0.00,48.000000,,2013-01-29 00:52:00,
2013-01-28 18:01:00,15.0,12.0,-100.00,SSW,200,6.0,9.0,86,0.00,,,0.00,48.000000,,2013-01-29 01:01:00,
2013-01-28 18:32:00,14.0,10.0,-100.00,WSW,239,4.0,9.0,85,0.00,,,0.00,6.000000,,2013-01-29 01:32:00,
2013-01-28 18:42:00,14.0,10.0,-100.00,WSW,239,4.0,9.0,85,0.00,,,0.00,6.000000,,2013-01-29 01:42:00,
2013-01-28 18:52:00,14.0,10.0,-100.00,WSW,239,4.0,9.0,85,0.00,,,0.00,6.000000,,2013-01-29 01:52:00,
2013-01-28 19:01:00,14.0,10.0,-100.00,WSW,239,4.0,9.0,85,0.00,,,0.00,6.000000,,2013-01-29 02:01:00,
2013-01-28 19:33:00,15.0,12.0,-100.00,South,178,3.0,9.0,86,0.00,,,0.00,0.000000,,2013-01-29 02:33:00,
2013-01-28 19:42:00,15.0,12.0,-100.00,South,178,3.0,9.0,86,0.00,,,0.00,0.000000,,2013-01-29 02:42:00,
2013-01-28 19:53:00,15.0,12.0,-100.00,South,178,3.0,9.0,86,0.00,,,0.00,0.000000,,2013-01-29 02:53:00,
2013-01-28 20:02:00,15.0,12.0,-100.00,South,178,3.0,9.0,86,0.00,,,0.00,0.000000,,2013-01-29 03:02:00,
2013-01-28 20:32:00,14.0,11.0,-100.00,South,180,4.0,6.0,86,0.00,,,0.00,0.000000,,2013-01-29 03:32:00,
2013-01-28 20:42:00,14.0,11.0,-100.00,South,180,4.0,6.0,86,0.00,,,0.00,0.000000,,2013-01-29 03:42:00,
2013-01-28 20:53:00,14.0,11.0,-100.00,South,180,4.0,6.0,86,0.00,,,0.00,0.000000,,2013-01-29 03:53:00,
2013-01-28 21:01:00,14.0,11.0,-100.00,South,180,4.0,6.0,86,0.00,,,0.00,0.000000,,2013-01-29 04:01:00,
2013-01-28 21:32:00,14.0,10.0,-100.00,SW,222,4.0,7.0,85,0.00,,,0.00,0.000000,,2013-01-29 04:32:00,
2013-01-28 21:42:00,14.0,10.0,-100.00,SW,222,4.0,7.0,85,0.00,,,0.00,0.000000,,2013-01-29 04:42:00,
2013-01-28 21:52:00,14.0,10.0,-100.00,SW,222,4.0,7.0,85,0.00,,,0.00,0.000000,,2013-01-29 04:52:00,
2013-01-28 22:03:00,14.0,10.0,-100.00,SW,222,4.0,7.0,85,0.00,,,0.00,0.000000,,2013-01-29 05:03:00,
2013-01-28 22:32:00,13.0,9.0,-100.00,WSW,255,5.0,7.0,85,0.00,,,0.00,0.000000,,2013-01-29 05:32:00,
2013-01-28 22:42:00,13.0,9.0,-100.00,WSW,255,5.0,7.0,85,0.00,,,0.00,0.000000,,2013-01-29 05:42:00,
2013-01-28 22:52:00,13.0,9.0,-100.00,WSW,255,5.0,7.0,85,0.00,,,0.00,0.000000,,2013-01-29 05:52:00,
2013-01-28 23:01:00,13.0,9.0,-100.00,WSW,255,5.0,7.0,85,0.00,,,0.00,0.000000,,2013-01-29 06:01:00,
2013-01-28 23:32:00,13.0,9.0,-100.00,South,188,2.0,6.0,85,0.00,,,0.00,0.000000,,2013-01-29 06:32:00,
2013-01-28 23:42:00,13.0,9.0,-100.00,South,188,2.0,6.0,85,0.00,,,0.00,0.000000,,2013-01-29 06:42:00,
2013-01-28 23:52:00,13.0,9.0,-100.00,South,188,2.0,6.0,85,0.00,,,0.00,0.000000,,2013-01-29 06:52:00,